Regional Weather Roundup
Issued by NWS

Home | Current Version | Previous Version | Graphics & Text | Print | Product List | Glossary On
Versions: 1 2 3 4 5 6 7 8 9 10 11 12 13 14 15 16 17 18 19 20 21 22 23 24 25 26 27
000
ASUS45 KCYS 220010
RWRWY

WYOMING REGIONAL WEATHER ROUNDUP
NATIONAL WEATHER SERVICE CHEYENNE WY
500 PM MST SUN JAN 21 2018

NOTE:  "FAIR" INDICATES FEW OR NO CLOUDS BELOW 12,000 FEET
WITH NO SIGNIFICANT WEATHER AND/OR OBSTRUCTIONS TO VISIBILITY.

WYZ001-220100-
YELLOWSTONE NATIONAL PARK

CITY           SKY/WX    TMP DP  RH WIND       PRES   REMARKS
LK YELLOWSTONE   N/A      4   2  91 CALM      30.08R
6HR MIN TEMP:  -8; 6HR MAX TEMP:  10;

W YELLOWSTONE  NOT AVBL

$$
WYZ002>013-054>058-071-098>099-220100-
NORTHERN WYOMING

CITY           SKY/WX    TMP DP  RH WIND       PRES   REMARKS
JACKSON        FAIR      25   9  50 CALM      30.11R
CODY           FAIR      29  18  63 SE8       30.02R WCI  21
GREYBULL       FAIR      29  21  72 SE8       30.06R WCI  21
6HR MIN TEMP:  26; 6HR MAX TEMP:  32;

WORLAND        FAIR      20  16  84 SE9       30.06R WCI   9
6HR MIN TEMP:  20; 6HR MAX TEMP:  28;

SHERIDAN       FAIR      24  16  71 SW6       30.02S WCI  17
6HR MIN TEMP:  23; 6HR MAX TEMP:  38;

BUFFALO        FAIR      27  13  55 NW3       30.02R
6HR MIN TEMP:  27; 6HR MAX TEMP:  32;

GILLETTE       FAIR      20  17  88 W8        30.01S WCI  10
6HR MIN TEMP:  20; 6HR MAX TEMP:  32;

HULETT         FAIR      32  21  64 CALM      30.01R
NEWCASTLE      FAIR      27  19  74 NW10      30.00R WCI  17

$$
WYZ014>020-022>026-101>103-220100-
CENTRAL WYOMING

CITY           SKY/WX    TMP DP  RH WIND       PRES   REMARKS
BIG PINEY      FAIR      24   9  52 NW13      30.05R WCI  12
6HR MIN TEMP:  24; 6HR MAX TEMP:  30;

PINEDALE       FAIR      21   7  53 CALM      30.06R
DUBOIS         FAIR      23   5  46 W17       29.98S WCI   9
LANDER         FAIR      21  10  62 CALM      30.02S
6HR MIN TEMP:  21; 6HR MAX TEMP:  29;

RIVERTON       FAIR      20  14  77 S7        30.04R WCI  11
6HR MIN TEMP:  20; 6HR MAX TEMP:  28;

CASPER         FAIR      14  11  87 W7        30.04R WCI   4
6HR MIN TEMP:  14; 6HR MAX TEMP:  25;

DOUGLAS        CLOUDY    24  18  77 NW13      30.03R WCI  12
6HR MIN TEMP:  24; 6HR MAX TEMP:  25; 6HR PCP: TRACE;


$$
WYZ021-027>030-104>119-220100-
SOUTHERN WYOMING

CITY           SKY/WX    TMP DP  RH WIND       PRES   REMARKS
EVANSTON       CLOUDY    17  11  77 W12       30.12R WCI   4
6HR MIN TEMP:  17; 6HR MAX TEMP:  21; 6HR PCP: TRACE;

FORT BRIDGER   FAIR      20  15  82 W15       30.12R WCI   6
ROCK SPRINGS   FAIR      16  11  80 W13       30.07R WCI   2
6HR MIN TEMP:  16; 6HR MAX TEMP:  20; 6HR PCP: TRACE;

DIXON            N/A     22  14  72 NW12      30.07R WCI  10
RAWLINS        CLOUDY    18  12  77 NW12      30.02R WCI   5
6HR MIN TEMP:  18; 6HR MAX TEMP:  21; 6HR PCP: TRACE;

SARATOGA       LGT SNOW  19  19 100 NW7       30.01R WCI  10
LARAMIE        LGT SNOW  15  14  95 NW23      29.92R FOG     WCI  -3
6HR MIN TEMP:  15; 6HR MAX TEMP:  18; 6HR PCP: TRACE;

CHEYENNE       LGT SNOW  20  18  92 N18G30    29.91R FOG     WCI   5
6HR MIN TEMP:  20; 6HR MAX TEMP:  21; 6HR PCP:  0.01;

TORRINGTON     LGT SNOW  26  25  96 NW16      29.98R FOG     WCI  14
6HR MIN TEMP:  26; 6HR MAX TEMP:  28; 6HR PCP: TRACE;


$$




USA.gov is the U.S. government's official web portal to all federal, state and local government web resources and services.